{"data":{"norad_id":59841,"intl_designator":"2024-097G","name":"STARLINK-31852","alt_names":[],"object_type":"PAYLOAD","status":"ACTIVE","operator":null,"country":"US","launch_date":"2024-05-23","launch_site_code":"AFETR","launch_vehicle":null,"mission":null,"orbit_class":"UNKNOWN","rcs_meters":null,"size_class":null,"mass_kg":null,"dimensions":null,"purposes":["comms"],"wikipedia_slug":null,"has_3d_model":false,"image_url":null,"decayed_at":null,"tle_current":{"epoch":"2026-09-21T09:00:24.471072Z","epoch_age_seconds":98864,"freshness":"FRESH","line1":"1 59841U 24097G   26264.37528323  .00002118  00000+0  86478-4 0  9990","line2":"2 59841  43.0013 241.5055 0001003 261.1679  98.9059 15.27570102131935","mean_motion":15.27570102,"eccentricity":0.0001003,"inclination_deg":43.0013,"raan_deg":241.5055,"arg_perigee_deg":261.1679,"mean_anomaly_deg":98.9059,"bstar":8.6478e-5,"rev_number":13193,"period_min":94.267359521809,"perigee_km":482.39055443432,"apogee_km":483.76691431063,"semimajor_km":6861.2157343725,"source":"CELESTRAK","updated_at":"2026-09-22T09:00:49.076913Z"}}}